Regional Weather Roundup
Issued by NWS

Home | Current Version | Previous Version | Graphics & Text | Print | Product List | Glossary On
Versions: 1 2 3 4 5 6 7 8 9 10 11 12 13 14 15 16 17 18 19 20 21 22 23 24 25 26 27 28 29 30 31 32 33 34 35 36 37 38 39 40 41 42 43 44 45 46 47 48 49 50
000
ASUS43 KFSD 122110
RWRSD

WEATHER ROUNDUP FOR SOUTH DAKOTA
NATIONAL WEATHER SERVICE SIOUX FALLS SD
400 PM CDT SAT JUL 12 2014

NOTE: "FAIR" INDICATES FEW OR NO CLOUDS BELOW 12,000 FEET WITH NO
SIGNIFICANT WEATHER AND/OR OBSTRUCTIONS TO VISIBILITY.


SDZ001>005-009-010-012>017-122200-
NORTHWEST AND NORTH CENTRAL SOUTH DAKOTA

CITY           SKY/WX    TMP DP  RH WIND       PRES   REMARKS
BUFFALO          N/A     81  59  47 NW10      30.10S
FAITH            N/A     79  62  56 VRB6      30.13S
MOBRIDGE       SUNNY     79  64  60 NW9       30.05F
$$

SDZ012>016-024>037-041>051-057-063-072>074-122200-
SOUTHWEST AND SOUTH CENTRAL SOUTH DAKOTA

CITY           SKY/WX    TMP DP  RH WIND       PRES   REMARKS
RAPID CTY ARPT MOSUNNY   76  63  64 CALM      30.16S
PIERRE         SUNNY     79  63  57 N10       30.07F
CUSTER         CLOUDY    78  53  41 W8G20     30.26F
PHILIP         PTSUNNY   84  61  45 VRB6      30.09S
PINE RIDGE     SUNNY     81  62  52 S9        30.16F
WINNER         MOCLDY    86  65  49 W8        30.07S
$$

SDZ004>011-016>023-039-040-122200-
NORTHEAST SOUTH DAKOTA

CITY           SKY/WX    TMP DP  RH WIND       PRES   REMARKS
ABERDEEN       MOSUNNY   79  61  53 W9        30.03F
WATERTOWN      MOSUNNY   74  65  73 VRB6      30.04F
SISSETON         N/A     80  59  48 NW9       29.99F
$$

SDZ017-020-022-023-036>040-048>070-122200-
SOUTHEAST SOUTH DAKOTA

CITY           SKY/WX    TMP DP  RH WIND       PRES   REMARKS
SIOUX FALLS    MOSUNNY   81  66  60 NE7       30.01F
HURON          PTSUNNY   78  66  66 N5        30.04F
CHAMBERLAIN    MOSUNNY   80  65  60 NW7       30.06S
MITCHELL       MOSUNNY   80  66  62 SE3       30.03F
YANKTON        PTSUNNY   79  68  69 N7        30.02F
$$

ABBREVIATIONS USED IN REMARKS
   TC - TEMPERATURE IN CELSIUS
  WCI - WIND CHILL INDEX
   HX - HEAT INDEX
  VSB - VISIBILITY




USA.gov is the U.S. government's official web portal to all federal, state and local government web resources and services.